RESULTAT

5 km - Preliminära Resultat

5 km 2019  - Kvinna - 51 st
Plac. Nr Löpare Start Mål Sluttid Tempo
1 570 Nathalie Rubin | Varbergs BHK SWE 10:15:00 10:42:02 00:27:02 5:24 min/km
2 534 Linn Backman SWE 10:15:00 10:46:00 00:31:00 6:12 min/km
3 543 Helena Johansson | Varberg SWE 10:15:00 10:47:49 00:32:49 6:34 min/km
4 581 Alicia Melin Skogum | Varberg SWE 10:15:00 10:47:53 00:32:53 6:35 min/km
5 582 Anna Nilsson | Rolfstorp SWE 10:15:00 10:47:56 00:32:56 6:35 min/km
6 554 Maria Zapata Pon | Kortedala Trail Troopers SWE 10:15:00 10:48:42 00:33:42 6:44 min/km
7 569 Johanna Ljunggren | Kungsbacka SWE 10:15:00 10:48:43 00:33:43 6:45 min/km
8 508 Sara Danielsson | Aktivitus Sports Club SWE 10:15:00 10:49:27 00:34:27 6:53 min/km
9 549 Madelen Johansson | Malmö SWE 10:15:00 10:50:17 00:35:17 7:03 min/km
10 533 Linda Hagström | Helsingborg SWE 10:15:00 10:50:30 00:35:30 7:06 min/km
11 553 Linda Bromée | Helsingborg SWE 10:15:00 10:50:32 00:35:32 7:06 min/km
12 584 Annelie Gutavsson SWE 10:15:00 10:50:48 00:35:48 7:10 min/km
13 502 Johanna Brorsson | Grimeton SWE 10:15:00 10:50:58 00:35:58 7:12 min/km
14 523 Eva Anderson | Grimeton SWE 10:15:00 10:51:05 00:36:05 7:13 min/km
15 539 Matilda Andersson | Varbergs Brukshundklubb SWE 10:15:00 10:51:58 00:36:58 7:24 min/km
16 507 Christin Lindahl | Varberg SWE 10:15:00 10:52:11 00:37:11 7:26 min/km
17 561 Anna Kärrman | Fyrstrandsbyns AIS SWE 10:15:00 10:52:57 00:37:57 7:35 min/km
18 503 Pernilla Ståhlbom | Varberg SWE 10:15:00 10:53:14 00:38:14 7:39 min/km
19 538 Linda Skön | Runacademy SWE 10:15:00 10:53:20 00:38:20 7:40 min/km
20 510 Theresa Kovacs | ebloppet.se SWE 10:15:00 10:53:23 00:38:23 7:41 min/km
21 544 Klara Svensson | Familjen Svensson SWE 10:15:00 10:53:24 00:38:24 7:41 min/km
22 509 Chatarina Pintaric | EB-loppet.se SWE 10:15:00 10:53:28 00:38:28 7:42 min/km
23 559 Anki Eriksson | Varberg SWE 10:15:00 10:53:29 00:38:29 7:42 min/km
24 521 Linn Semborn | Valinge SWE 10:15:00 10:53:36 00:38:36 7:43 min/km
25 545 Jennifer Thanutan Wånge | Varberg SWE 10:15:00 10:53:49 00:38:49 7:46 min/km
26 517 Lovisa Berg | Läjetbrudarna SWE 10:15:00 10:54:10 00:39:10 7:50 min/km
27 500 Erica Callmin | Ingen klubb SWE 10:15:00 10:54:18 00:39:18 7:52 min/km
28 537 Anna Ivarsson | Hälsohuset Sätila SWE 10:15:00 10:54:23 00:39:23 7:53 min/km
29 586 Cecilia Thulin SWE 10:15:00 10:55:31 00:40:31 8:06 min/km
30 550 Stina Förster | Varberg SWE 10:15:00 10:55:59 00:40:59 8:12 min/km
31 551 Elizabeth Alvarado | Varberg SWE 10:15:00 10:56:01 00:41:01 8:12 min/km
32 568 Lisen Hansen | Getskär SWE 10:15:00 10:56:07 00:41:07 8:13 min/km
33 567 Cecilia Taube | Getskär SWE 10:15:00 10:56:07 00:41:07 8:13 min/km
34 574 Monika ekdahl | Borås SWE 10:15:00 10:56:29 00:41:29 8:18 min/km
35 501 Anna Nordström SWE 10:15:00 10:56:47 00:41:47 8:21 min/km
36 552 Christina Malmqvist | Falkenbergs ok SWE 10:15:00 10:57:11 00:42:11 8:26 min/km
37 514 Sanna Bengtsson | Läjetsbrudarna SWE 10:15:00 10:58:07 00:43:07 8:37 min/km
38 516 Cecilia Vallin | Läjetbrudarna SWE 10:15:00 10:58:16 00:43:16 8:39 min/km
39 526 Irene Nilsson | Klägghults Ponnysällskap SWE 10:15:00 10:58:42 00:43:42 8:44 min/km
40 531 Carola Walfridson | Nässjö Ski SWE 10:15:00 10:59:13 00:44:13 8:51 min/km
41 562 Marie Gustafsson kry | Målsryd SWE 10:15:00 10:59:21 00:44:21 8:52 min/km
42 540 Petra Lind | Vallda SWE 10:15:00 10:59:31 00:44:31 8:54 min/km
43 566 Katarina Christenson | Onsala IBK SWE 10:15:00 11:00:10 00:45:10 9:02 min/km
44 541 Helene Adolfson SWE 10:15:00 11:00:10 00:45:10 9:02 min/km
45 547 Sabina Selin | If Rigor SWE 10:15:00 11:01:21 00:46:21 9:16 min/km
46 525 Karolina Peterson | Klägghults Ponnysällskap SWE 10:15:00 11:02:58 00:47:58 9:36 min/km
47 519 Christina Sjöö | Swahn Trail SWE 10:15:00 11:04:13 00:49:13 9:51 min/km
48 532 Jennie Matlak | Dark trail runners SWE 10:15:00 11:04:56 00:49:56 9:59 min/km
49 577 Ann Jönsson | Tvååker SWE 10:15:00 11:05:54 00:50:54 10:11 min/km
50 530 Maria Johansson | Vallda SWE 10:15:00 11:24:26 01:09:26 13:53 min/km

Sida: 1 2

Saknar du ett resultat eller ser någon felaktighet - skicka gärna ett mail till time@racebuddi.com